Weather in Astrakhanka

Russia / Primorsky Krai     44°43′14″N   132°03′23″E
temp.,
°C
wind,
m/s
gust,
m/s
humid.,
%
clouds,
%
prec.,
mm/h
press.,
hPa
HPBL,
m
14 may, fri
fri1401:00+10sw347714 0.0 101146
04:00+10sw33633 0.0 101223
07:00+10sw33632 0.0 101339
10:00+17ssw3446100 0.0 1013296
13:00+20s453981 0.0 10121038
16:00+21s4641100 0.0 10101425
19:00+18s71358100 0.0 1009510
22:00+15ssw81761100 0.0 1010506
15 may, sat
sat1501:00+13s91963100 0.0 1008583
04:00+12ssw91876100 0.1 1007501
07:00+12ssw91782100 0.0 1007437
10:00+16ssw914715 0.0 1006587
13:00+20s8126399 0.0 1004558
16:00+11n3597100 8.3 1006162
19:00+12wsw2690100 6.9 1008518
22:00+11ssw3589100 7.1 1010119
16 may, sun
sun1601:00+10ssw458953 0.0 1010108
04:00+8sw349037 0.0 100958
07:00+9wsw227995 0.0 100941
10:00+15nnw2455100 0.0 1009407
13:00+17e2343100 0.0 10081394
16:00+17ese334697 0.0 1007735
19:00+17s335478 0.0 100688
22:00+14sw3367100 0.0 100728
17 may, mon
mon1701:00+12sw33695 0.0 100630
04:00+11sw33641 0.0 100625
07:00+11sw446495 0.0 100658
10:00+17sw454672 0.0 1005341
13:00+21sse4437100 0.0 1004944
16:00+21ese4338100 0.0 1002931
19:00+18se355998 0.0 1003105
22:00+15ssw3362100 0.0 100437
18 may, tue
tue1801:00+14ssw2263100 0.0 100326
04:00+13sw3366100 0.0 100430
07:00+13ssw2269100 0.0 100426
10:00+18ssw3355100 0.0 1004274
13:00+21s3346100 0.0 1003751
16:00+22s4446100 0.0 1002821
19:00+17ssw5971100 0.4 1003303
22:00+13ssw6118072 0.9 1005265